TRA38C EHRD-LOWI

Flight info

Callsign TRA38C
Flight time N/A
Altitude 39000
Route WOODY N872 NIK M624 BUB DCT LIRSU DCT KRH DCT BATUB/N0438F310 M738 MADEB MADEB1B
Aircraft B738/M-SDE2E3FGHIRWXY/LB1

Departure

Time 2026-05-05 17:54
Airport Rotterdam The Hague Airport (EHRD)

Arrival

Time N/A
Airport Innsbruck Airport (LOWI)
Time Latitude Longitude Altitude Speed Heading
2026-05-05 17:25 51.95127 4.43437 -7 ft 0 kts 326°
2026-05-05 17:43 51.95127 4.43436 -7 ft 0 kts 326°
2026-05-05 17:45 51.95128 4.43436 -7 ft 0 kts 326°
2026-05-05 17:46 51.95128 4.43435 -7 ft 0 kts 326°
2026-05-05 17:47 51.95136 4.43427 -7 ft 3 kts 329°
2026-05-05 17:48 51.95150 4.43422 -7 ft 3 kts
2026-05-05 17:48 51.95174 4.43433 -7 ft 5 kts
2026-05-05 17:48 51.95210 4.43413 -7 ft 7 kts 315°
2026-05-05 17:48 51.95210 4.43332 -7 ft 10 kts 239°
2026-05-05 17:49 51.95204 4.43314 -7 ft 2 kts 240°
2026-05-05 17:49 51.95193 4.43281 -7 ft 5 kts 243°
2026-05-05 17:49 51.95170 4.43214 -7 ft 9 kts 239°
2026-05-05 17:49 51.95155 4.43173 -7 ft 1 kts 239°
2026-05-05 17:50 51.95146 4.43148 -7 ft 4 kts 240°
2026-05-05 17:50 51.95126 4.43086 -7 ft 8 kts 244°
2026-05-05 17:50 51.95115 4.42984 -7 ft 11 kts 284°
2026-05-05 17:50 51.95127 4.42943 -7 ft 0 kts 308°
2026-05-05 17:51 51.95131 4.42936 -7 ft 0 kts 312°
2026-05-05 17:51 51.95140 4.42922 -7 ft 3 kts 318°
2026-05-05 17:51 51.95165 4.42890 -7 ft 6 kts 322°
2026-05-05 17:51 51.95209 4.42874 -7 ft 7 kts 25°
2026-05-05 17:52 51.95251 4.42936 -7 ft 6 kts 55°
2026-05-05 17:52 51.95252 4.42937 -7 ft 0 kts 55°
2026-05-05 17:53 51.95252 4.42938 -7 ft 0 kts 55°
2026-05-05 17:53 51.95275 4.42997 -7 ft 33 kts 55°
2026-05-05 17:53 51.95570 4.43725 -7 ft 118 kts 57°
2026-05-05 17:53 51.96084 4.45072 439 ft 149 kts 60°
2026-05-05 17:54 51.96502 4.46579 1500 ft 144 kts 68°
2026-05-05 17:54 51.96775 4.48097 2499 ft 138 kts 64°
2026-05-05 17:54 51.97269 4.49437 3204 ft 140 kts 51°
2026-05-05 17:54 51.97925 4.50726 3551 ft 158 kts 50°
2026-05-05 17:55 51.98473 4.51968 3466 ft 173 kts 56°
2026-05-05 17:55 51.99074 4.53663 3185 ft 186 kts 60°
2026-05-05 17:55 51.99683 4.55575 3186 ft 188 kts 62°
2026-05-05 17:55 52.00298 4.57596 3459 ft 213 kts 63°
2026-05-05 17:56 52.00664 4.60057 3963 ft 234 kts 88°
2026-05-05 17:56 52.00244 4.62660 4513 ft 247 kts 114°
2026-05-05 17:56 51.99307 4.64517 4792 ft 253 kts 137°
2026-05-05 17:56 51.98175 4.65562 4934 ft 256 kts 155°
2026-05-05 17:57 51.96453 4.66204 4958 ft 258 kts 168°
2026-05-05 17:57 51.94698 4.66904 5102 ft 261 kts 164°
2026-05-05 17:57 51.92983 4.66897 6167 ft 234 kts 191°
2026-05-05 17:57 51.91616 4.65691 7177 ft 213 kts 217°
2026-05-05 17:58 51.90637 4.64079 8045 ft 198 kts 230°
2026-05-05 17:58 51.89791 4.62180 8436 ft 219 kts 236°
2026-05-05 17:58 51.88896 4.60024 8718 ft 242 kts 236°
2026-05-05 17:58 51.87890 4.57698 9139 ft 265 kts 229°
2026-05-05 17:59 51.86399 4.55791 9638 ft 284 kts 207°
2026-05-05 17:59 51.84515 4.54631 10432 ft 291 kts 198°
2026-05-05 17:59 51.82536 4.53716 11081 ft 306 kts 194°
2026-05-05 17:59 51.80392 4.52856 11506 ft 327 kts 193°
2026-05-05 18:00 51.78166 4.51967 12047 ft 340 kts 193°
2026-05-05 18:00 51.75826 4.51021 12861 ft 345 kts 194°
2026-05-05 18:00 51.73497 4.50073 13707 ft 349 kts 194°
2026-05-05 18:00 51.71115 4.49090 14557 ft 352 kts 194°
2026-05-05 18:01 51.68765 4.48109 15366 ft 355 kts 194°
2026-05-05 18:01 51.66336 4.47103 16169 ft 358 kts 194°
2026-05-05 18:01 51.63919 4.46109 16930 ft 362 kts 194°
2026-05-05 18:01 51.61465 4.45102 17671 ft 365 kts 194°
2026-05-05 18:02 51.59012 4.44099 18404 ft 368 kts 194°
2026-05-05 18:02 51.56833 4.43209 18992 ft 372 kts 194°
2026-05-05 18:02 51.54340 4.42192 19690 ft 374 kts 194°
2026-05-05 18:02 51.51813 4.41162 20346 ft 378 kts 193°
2026-05-05 18:03 51.49245 4.40116 20985 ft 381 kts 194°
2026-05-05 18:03 51.46649 4.39060 21599 ft 385 kts 194°
2026-05-05 18:03 51.44059 4.38007 22193 ft 388 kts 194°
2026-05-05 18:03 51.41453 4.36873 22779 ft 391 kts 197°
2026-05-05 18:04 51.38895 4.35363 23359 ft 395 kts 202°
2026-05-05 18:04 51.36368 4.33500 23893 ft 399 kts 205°
2026-05-05 18:04 51.33867 4.31586 24486 ft 400 kts 204°
2026-05-05 18:04 51.31345 4.29684 25061 ft 402 kts 204°
2026-05-05 18:05 51.29659 4.28399 25410 ft 403 kts 205°